Starlink 4286

operational
NORAD ID: 52990 Int'l Des: 2022-076 Owner: SPXS Country: US Constellation: starlink
LEOCIRCULAR

Über Starlink 4286

Beschreibung wird geladen...

Live-Position

3D-Globus wird geladen...

Nächste Überflüge

Höhenverlauf

Altitude vs Time

uPlot chart will show altitude changes over time

Zweizeiliger Elementsatz

1 52990U 22076E 25308.28497035 -.00000166 00000-0 76702-5 0 9999
2 52990 53.2171 307.0838 0001425 87.0674 273.0481 15.08839718183770
Epoch: 4. Nov. 2025 • Age: 10 hours

Aktueller Status

Höhe 542.4 km
Geschwindigkeit 7.60 km/s
Subsatellitenpunkt 39.39°N, 49.59°E
Startdatum 7. Juli 2022
Alter 3.3 years
Typ internet

Technische Details

Klassifizierung Payload
Masse 297.00 kg
Trockenmasse 275.00 kg
Gesamtmasse 297.00 kg
Länge 0.20 m
Durchmesser 2.80 m
Spannweite 9.00 m
Form Box + pan
Hersteller SPXS
Bus-Typ Starlink
Phasenstatus In Orbit
Besitzer/Staat SPXS/US

Große Konstellationen

Loading constellations...